Radiation Dose at Monitoring Post of Fukushima Daini Nuclear Power Station
Date,Time,MP-1(microSv/h),MP-2(microSv/h),MP-3(microSv/h),MP-4(microSv/h),MP-5(microSv/h),MP-6(microSv/h),MP-7(microSv/h),Wind Direction,Wind Velocity(m/s),Rain
2018/05/14,00:00,0.302,0.192,0.308,0.298,0.295,0.157,0.096,north-northwest,6.1,No
2018/05/14,00:10,0.303,0.191,0.307,0.295,0.294,0.156,0.096,north,8.3,No
2018/05/14,00:20,0.302,0.192,0.309,0.295,0.296,0.156,0.096,north-northwest,4.8,No
2018/05/14,00:30,0.303,0.191,0.309,0.295,0.292,0.156,0.095,north-northwest,2.4,No
2018/05/14,00:40,0.301,0.191,0.308,0.298,0.296,0.155,0.095,-,CALM,No
2018/05/14,00:50,0.302,0.192,0.307,0.295,0.292,0.155,0.096,north,2.8,No
2018/05/14,01:00,0.302,0.190,0.308,0.296,0.297,0.155,0.095,north,5.5,No
2018/05/14,01:10,0.303,0.191,0.308,0.294,0.293,0.155,0.094,north,3.1,No
2018/05/14,01:20,0.301,0.191,0.308,0.296,0.295,0.155,0.096,north-northeast,1.5,No
2018/05/14,01:30,0.302,0.191,0.308,0.295,0.292,0.155,0.095,north-northwest,1.2,No
2018/05/14,01:40,0.301,0.191,0.308,0.296,0.295,0.155,0.095,west,1.3,No
2018/05/14,01:50,0.303,0.191,0.308,0.295,0.293,0.154,0.094,-,CALM,No
2018/05/14,02:00,0.302,0.191,0.307,0.294,0.294,0.155,0.095,-,CALM,No
2018/05/14,02:10,0.301,0.190,0.309,0.295,0.294,0.153,0.096,-,CALM,No
2018/05/14,02:20,0.301,0.191,0.307,0.294,0.294,0.155,0.095,-,CALM,No
2018/05/14,02:30,0.302,0.190,0.308,0.294,0.294,0.155,0.095,-,CALM,No
2018/05/14,02:40,0.302,0.191,0.307,0.294,0.294,0.154,0.094,-,CALM,No
2018/05/14,02:50,0.303,0.191,0.310,0.297,0.293,0.155,0.094,south,1.3,No
2018/05/14,03:00,0.300,0.190,0.307,0.294,0.294,0.154,0.095,southwest,1.9,No
2018/05/14,03:10,0.303,0.191,0.311,0.297,0.294,0.155,0.095,south-southwest,1.2,Yes
2018/05/14,03:20,0.302,0.191,0.309,0.295,0.296,0.155,0.096,-,CALM,No
2018/05/14,03:30,0.303,0.193,0.309,0.298,0.296,0.156,0.096,-,CALM,No
2018/05/14,03:40,0.303,0.191,0.309,0.295,0.295,0.154,0.095,-,CALM,Yes
2018/05/14,03:50,0.303,0.192,0.309,0.296,0.295,0.155,0.095,east-southeast,0.8,No
2018/05/14,04:00,0.304,0.191,0.308,0.296,0.294,0.155,0.095,south,1.5,No
2018/05/14,04:10,0.302,0.192,0.307,0.297,0.295,0.156,0.095,south,2.2,No
2018/05/14,04:20,0.304,0.191,0.309,0.297,0.295,0.156,0.095,south,1.6,Yes
2018/05/14,04:30,0.303,0.192,0.309,0.296,0.296,0.156,0.096,south-southeast,0.7,No
2018/05/14,04:40,0.304,0.192,0.311,0.298,0.294,0.155,0.097,south,0.9,No
2018/05/14,04:50,0.302,0.191,0.309,0.296,0.297,0.156,0.095,south-southeast,1.0,No
2018/05/14,05:00,0.304,0.194,0.310,0.297,0.294,0.156,0.096,south,1.8,No
2018/05/14,05:10,0.302,0.191,0.308,0.295,0.296,0.156,0.096,south,1.6,No
2018/05/14,05:20,0.303,0.192,0.310,0.298,0.294,0.156,0.096,south,1.1,No
2018/05/14,05:30,0.303,0.190,0.308,0.295,0.295,0.156,0.096,south,1.1,No
2018/05/14,05:40,0.305,0.192,0.310,0.296,0.292,0.156,0.096,west-southwest,0.8,No
2018/05/14,05:50,0.301,0.192,0.310,0.296,0.296,0.155,0.096,-,CALM,No
2018/05/14,06:00,0.303,0.192,0.309,0.297,0.294,0.156,0.096,-,CALM,No
2018/05/14,06:10,0.303,0.193,0.311,0.295,0.296,0.156,0.096,-,CALM,Yes
2018/05/14,06:20,0.304,0.191,0.308,0.297,0.293,0.156,0.096,-,CALM,No
2018/05/14,06:30,0.301,0.191,0.312,0.294,0.296,0.156,0.096,east-northeast,0.8,Yes
2018/05/14,06:40,0.304,0.191,0.307,0.297,0.294,0.157,0.096,-,CALM,Yes
2018/05/14,06:50,0.301,0.192,0.311,0.295,0.297,0.156,0.097,west-southwest,1.2,No
2018/05/14,07:00,0.304,0.192,0.307,0.297,0.295,0.156,0.096,southwest,2.2,No
2018/05/14,07:10,0.301,0.192,0.310,0.296,0.295,0.155,0.096,southwest,1.6,No
2018/05/14,07:20,0.304,0.190,0.308,0.296,0.293,0.156,0.096,southwest,1.6,Yes
2018/05/14,07:30,0.301,0.192,0.311,0.295,0.295,0.156,0.095,south-southwest,3.2,No
2018/05/14,07:40,0.304,0.192,0.308,0.296,0.295,0.156,0.095,south-southwest,3.3,Yes
2018/05/14,07:50,0.302,0.191,0.310,0.295,0.294,0.155,0.095,southwest,3.1,Yes
2018/05/14,08:00,0.302,0.190,0.308,0.297,0.295,0.155,0.096,southwest,2.6,No
2018/05/14,08:10,0.301,0.193,0.311,0.296,0.294,0.157,0.097,south,2.7,Yes
2018/05/14,08:20,0.305,0.193,0.309,0.298,0.297,0.157,0.098,south-southeast,1.5,Yes
2018/05/14,08:30,0.304,0.195,0.313,0.298,0.295,0.159,0.098,southeast,1.0,Yes
2018/05/14,08:40,0.306,0.193,0.311,0.299,0.298,0.158,0.097,southwest,0.7,No
2018/05/14,08:50,0.304,0.193,0.311,0.297,0.296,0.157,0.097,-,CALM,Yes
2018/05/14,09:00,0.305,0.193,0.309,0.299,0.297,0.156,0.098,south,2.9,Yes
2018/05/14,09:10,0.303,0.194,0.312,0.297,0.295,0.157,0.097,west-southwest,2.3,No
2018/05/14,09:20,0.304,0.192,0.309,0.296,0.297,0.157,0.097,south-southwest,1.6,No
2018/05/14,09:30,0.302,0.193,0.310,0.294,0.294,0.157,0.096,south-southwest,1.3,No
2018/05/14,09:40,0.304,0.191,0.309,0.297,0.294,0.155,0.096,-,CALM,No
2018/05/14,09:50,0.303,0.191,0.311,0.297,0.297,0.155,0.096,southeast,1.1,No
2018/05/14,10:00,0.300,0.192,0.307,0.293,0.293,0.156,0.095,south,2.0,No
2018/05/14,10:10,0.303,0.189,0.307,0.292,0.291,0.155,0.095,southeast,2.2,No
2018/05/14,10:20,0.301,0.191,0.309,0.295,0.292,0.155,0.095,-,-,No
2018/05/14,10:30,0.301,0.191,0.306,0.297,0.294,0.156,0.094,-,-,No
2018/05/14,10:40,0.304,0.190,0.306,0.294,0.293,0.156,0.094,-,-,No
2018/05/14,10:50,0.302,0.190,0.308,0.294,0.292,0.155,0.095,-,-,No
2018/05/14,11:00,0.302,0.189,0.309,0.292,0.291,0.154,0.095,-,-,No
2018/05/14,11:10,0.299,0.189,0.305,0.293,0.293,0.155,0.095,-,-,No
2018/05/14,11:20,0.300,0.190,0.305,0.292,0.295,0.155,0.094,-,-,No
2018/05/14,11:30,0.304,0.191,0.306,0.292,0.295,0.156,0.093,-,-,No
2018/05/14,11:40,0.306,0.190,0.311,0.299,0.293,0.155,0.094,-,-,No
2018/05/14,11:50,0.302,0.190,0.310,0.299,0.291,0.154,0.095,-,-,No
2018/05/14,12:00,0.301,0.190,0.308,0.297,0.293,0.155,0.095,-,-,No
2018/05/14,12:10,0.306,0.192,0.307,0.296,0.297,0.154,0.094,-,-,No
2018/05/14,12:20,0.305,0.191,0.307,0.295,0.294,0.155,0.094,-,-,No
2018/05/14,12:30,0.303,0.191,0.309,0.295,0.294,0.155,0.094,-,-,No
2018/05/14,12:40,0.302,0.190,0.310,0.295,0.293,0.156,0.094,-,-,No
2018/05/14,12:50,0.305,0.192,0.309,0.295,0.292,0.155,0.094,-,-,No
2018/05/14,13:00,0.306,0.191,0.309,0.296,0.294,0.155,0.093,-,-,No
2018/05/14,13:10,0.305,0.192,0.308,0.295,0.297,0.156,0.093,-,-,No
2018/05/14,13:20,0.303,0.190,0.308,0.295,0.297,0.156,0.095,-,-,No
2018/05/14,13:30,0.307,0.190,0.308,0.296,0.297,0.156,0.095,-,-,No
2018/05/14,13:40,0.308,0.191,0.308,0.296,0.294,0.156,0.096,-,-,No
2018/05/14,13:50,0.307,0.192,0.309,0.295,0.295,0.156,0.094,-,-,No
2018/05/14,14:00,0.305,0.193,0.307,0.296,0.294,0.156,0.094,-,-,No
2018/05/14,14:10,0.304,0.191,0.312,0.296,0.293,0.157,0.094,-,-,No
2018/05/14,14:20,0.303,0.190,0.313,0.298,0.295,0.157,0.093,-,-,No
2018/05/14,14:30,0.303,0.190,0.312,0.296,0.293,0.156,0.095,-,-,No
2018/05/14,14:40,0.307,0.191,0.310,0.295,0.294,0.157,0.094,-,-,No
2018/05/14,14:50,0.308,0.193,0.310,0.299,0.294,0.157,0.094,-,-,No
2018/05/14,15:00,0.307,0.194,0.310,0.301,0.294,0.157,0.095,-,-,No
2018/05/14,15:10,0.306,0.192,0.309,0.300,0.294,0.157,0.096,-,-,No
2018/05/14,15:20,0.305,0.192,0.316,0.297,0.298,0.156,0.095,-,-,No
2018/05/14,15:30,0.306,0.192,0.314,0.300,0.300,0.157,0.095,-,-,No
2018/05/14,15:40,0.310,0.194,0.312,0.301,0.298,0.157,0.095,-,-,No
2018/05/14,15:50,0.308,0.192,0.310,0.298,0.296,0.157,0.095,-,-,No
2018/05/14,16:00,0.306,0.192,0.315,0.302,0.295,0.157,0.095,north,7.7,No
2018/05/14,16:10,0.305,0.194,0.313,0.299,0.295,0.157,0.095,north-northwest,9.2,No
2018/05/14,16:20,0.308,0.192,0.311,0.299,0.295,0.157,0.096,north-northwest,9.0,No
2018/05/14,16:30,0.310,0.194,0.316,0.302,0.293,0.157,0.096,north-northwest,10.1,No
2018/05/14,16:40,0.307,0.194,0.314,0.299,0.296,0.156,0.096,north-northwest,9.6,No
2018/05/14,16:50,0.306,0.193,0.313,0.298,0.299,0.158,0.096,north,8.4,No
2018/05/14,17:00,0.309,0.195,0.314,0.301,0.297,0.158,0.095,north-northwest,6.6,No
2018/05/14,17:10,0.310,0.193,0.312,0.299,0.295,0.157,0.095,north,7.4,No
2018/05/14,17:20,0.306,0.194,0.314,0.302,0.296,0.159,0.096,north,7.0,No
2018/05/14,17:30,0.309,0.195,0.313,0.300,0.300,0.157,0.095,north-northwest,6.5,No
2018/05/14,17:40,0.311,0.193,0.312,0.301,0.297,0.157,0.096,north-northwest,5.5,No
2018/05/14,17:50,0.308,0.194,0.313,0.301,0.296,0.157,0.095,north-northwest,6.6,No
2018/05/14,18:00,0.309,0.192,0.312,0.299,0.299,0.157,0.096,north-northwest,6.0,No
2018/05/14,18:10,0.310,0.194,0.316,0.302,0.295,0.157,0.095,northwest,5.3,No
2018/05/14,18:20,0.308,0.193,0.313,0.299,0.299,0.157,0.096,west-northwest,6.5,No
2018/05/14,18:30,0.308,0.194,0.315,0.301,0.299,0.157,0.095,northwest,7.6,No
2018/05/14,18:40,0.309,0.192,0.315,0.301,0.298,0.157,0.095,northwest,7.4,No
2018/05/14,18:50,0.309,0.193,0.313,0.300,0.297,0.157,0.096,northwest,7.6,No
2018/05/14,19:00,0.309,0.193,0.315,0.302,0.297,0.157,0.096,northwest,7.6,No
2018/05/14,19:10,0.307,0.194,0.313,0.299,0.299,0.158,0.095,northwest,7.9,No
2018/05/14,19:20,0.309,0.193,0.315,0.301,0.298,0.158,0.096,north-northwest,9.3,No
2018/05/14,19:30,0.308,0.195,0.312,0.301,0.299,0.157,0.095,northwest,10.9,No
2018/05/14,19:40,0.311,0.194,0.314,0.300,0.297,0.157,0.095,northwest,9.5,No
2018/05/14,19:50,0.308,0.193,0.313,0.300,0.298,0.157,0.096,northwest,5.6,No
2018/05/14,20:00,0.310,0.193,0.315,0.301,0.297,0.158,0.096,northwest,4.4,No
2018/05/14,20:10,0.309,0.193,0.312,0.300,0.300,0.157,0.095,northwest,4.1,No
2018/05/14,20:20,0.312,0.193,0.316,0.302,0.298,0.157,0.096,north-northwest,2.3,No
2018/05/14,20:30,0.308,0.193,0.313,0.299,0.299,0.157,0.096,west,1.3,No
2018/05/14,20:40,0.310,0.193,0.316,0.302,0.297,0.158,0.095,northwest,0.6,No
2018/05/14,20:50,0.309,0.193,0.315,0.300,0.299,0.158,0.095,west-northwest,2.7,No
2018/05/14,21:00,0.310,0.193,0.315,0.301,0.299,0.157,0.096,west-northwest,5.6,No
2018/05/14,21:10,0.309,0.195,0.314,0.302,0.299,0.157,0.095,west-northwest,4.8,No
2018/05/14,21:20,0.310,0.193,0.314,0.301,0.299,0.156,0.096,northwest,2.0,No
2018/05/14,21:30,0.308,0.193,0.313,0.300,0.297,0.157,0.095,north-northwest,1.6,No
2018/05/14,21:40,0.309,0.194,0.313,0.302,0.298,0.158,0.095,north-northwest,1.0,No
2018/05/14,21:50,0.308,0.194,0.315,0.301,0.298,0.157,0.096,west,3.9,No
2018/05/14,22:00,0.311,0.192,0.315,0.299,0.299,0.157,0.096,west-northwest,3.3,No
2018/05/14,22:10,0.309,0.193,0.315,0.301,0.296,0.157,0.096,west,3.7,No
2018/05/14,22:20,0.309,0.194,0.314,0.300,0.299,0.156,0.096,west-southwest,1.4,No
2018/05/14,22:30,0.309,0.193,0.314,0.301,0.297,0.158,0.095,west-northwest,0.6,No
2018/05/14,22:40,0.307,0.194,0.314,0.301,0.297,0.158,0.096,west,0.9,No
2018/05/14,22:50,0.310,0.194,0.315,0.301,0.296,0.157,0.096,west-northwest,2.5,No
2018/05/14,23:00,0.309,0.194,0.315,0.301,0.299,0.157,0.096,west-northwest,2.5,No
2018/05/14,23:10,0.309,0.194,0.314,0.300,0.298,0.157,0.095,northwest,1.8,No
2018/05/14,23:20,0.309,0.192,0.316,0.301,0.298,0.157,0.096,west,2.8,No
2018/05/14,23:30,0.309,0.194,0.315,0.300,0.299,0.158,0.096,west-northwest,3.1,No
2018/05/14,23:40,0.309,0.192,0.315,0.301,0.297,0.157,0.095,west,1.5,No
2018/05/14,23:50,0.308,0.192,0.315,0.302,0.299,0.157,0.096,west-southwest,2.7,No
